Location: Passau
(48.5830°N, 13.4830°E)
Time: 02:27:38
(UTC+01:00)

NOAA 19 - Pass Details

Date: 04 December 2021
Orbit: 841 x 860 km, 99.2° (Epoch: 17 January)

Event Time Altitude Azimuth Distance (km) Brightness Sun altitude
Rises 17:52:58 0° 141° (SE) 3,386 8.1 -16.0°
Reaches altitude 10° 17:55:25 10° 135° (SE) 2,456 7.3 -16.4°
Maximum altitude 18:00:31 43° 65° (ENE) 1,168 5.5 -17.2°
Drops below altitude 10° 18:05:41 10° 356° (N) 2,479 7.5 -18.0°
Sets 18:08:09 0° 350° (N) 3,421 8.3 -18.4°
